カタリナ-リニア彗星

227P/Catalina-LINEAR (2010)

English version
Home page
Updated on December 8, 2011

---------------------------------------------------------------------

・ プロフィール

符号 227P/2009 S4
検出日 2009年9月21日
検出光度 22.0等
検出者 J. V. Scotti (Kitt Peak)

・ 写真集

・ 軌道要素

The following orbital elements are taken from MPC 67148:

Epoch 2010 Sept. 1.0 TT = JDT 2455440.5
T 2010 Sept. 3.6991 TT                                  MPC
q   1.794802             (2000.0)            P               Q
n   0.1449143      Peri.   90.1345      -0.7612990      -0.6425515
a   3.589732       Node    49.8840      +0.5404900      -0.7029076
e   0.500018       Incl.    6.5247      +0.3581821      -0.3050385
P   6.80
From 86 observations 1997-2009, mean residual 0".7.

・ 光度変化

        m1 = 15.0 + 5 logΔ + 10.0 log r

---------------------------------------------------------------------

軌道要素はMPCのEphemerides and Orbital Elementsに掲載されたものです。
光度グラフはComet for Windowsで作成したものです。

---------------------------------------------------------------------

Copyright(C) Seiichi Yoshida (comet@aerith.net). All rights reserved.